CST,Max TemperatureF,Mean TemperatureF,Min TemperatureF,Max Dew PointF,MeanDew PointF,Min DewpointF,Max Humidity, Mean Humidity, Min Humidity, Max Sea Level PressureIn, Mean Sea Level PressureIn, Min Sea Level PressureIn, Max VisibilityMiles, Mean VisibilityMiles, Min VisibilityMiles, Max Wind SpeedMPH, Mean Wind SpeedMPH, Max Gust SpeedMPH,PrecipitationIn, CloudCover, Events, WindDirDegrees
2012-11-1,79,60,42,44,34,25,67,41,13,30.24,30.17,30.10,10,10,2,12,5,20,0.00,1,,204
2012-11-2,78,64,50,45,36,29,68,40,17,30.16,30.11,30.05,10,10,5,9,5,17,0.00,1,,212
2012-11-3,75,61,46,52,44,39,92,60,27,30.25,30.19,30.11,10,10,2,20,5,26,0.28,2,Thunderstorm,298
2012-11-4,73,57,41,51,45,39,96,75,29,30.31,30.27,30.23,10,10,2,21,4,30,0.29,1,Thunderstorm,216
2012-11-5,73,58,42,46,39,31,88,56,22,30.33,30.28,30.24,10,10,10,13,6,17,0.00,0,,181
2012-11-6,78,60,41,38,34,27,80,43,15,30.33,30.28,30.23,10,10,10,13,6,,0.00,0,,204
2012-11-7,79,62,46,38,33,28,69,37,15,30.31,30.24,30.17,10,10,10,12,8,17,0.00,0,,210
2012-11-8,79,67,55,46,35,32,56,33,18,30.21,30.14,30.07,10,10,10,17,7,24,0.00,0,,203
2012-11-9,79,66,52,52,41,35,65,41,20,30.15,30.08,30.01,10,10,10,17,8,24,0.00,0,,200
2012-11-10,78,70,61,51,40,34,66,34,23,30.02,29.95,29.87,10,10,10,30,16,40,0.00,0,,198
2012-11-11,67,48,30,37,27,15,64,38,23,30.39,30.15,29.91,10,10,5,21,9,29,0.00,0,,230
2012-11-12,54,38,23,16,9,4,59,33,15,30.53,30.45,30.39,10,10,10,10,4,,0.00,0,,42
2012-11-13,63,48,33,25,19,11,66,35,22,30.41,30.33,30.24,10,10,7,12,4,16,0.00,0,,194
2012-11-14,67,48,29,26,24,22,75,46,21,30.42,30.34,30.27,10,10,10,13,6,,0.00,0,,213
2012-11-15,73,56,40,31,29,26,57,39,20,30.35,30.27,30.22,10,10,10,16,6,22,0.00,0,,184
2012-11-16,66,54,41,41,31,21,83,48,26,30.41,30.35,30.29,10,10,10,13,4,18,0.00,1,,88
2012-11-17,71,56,42,49,45,38,87,66,39,30.33,30.29,30.24,10,10,10,14,6,16,0.00,2,,198
2012-11-18,68,60,52,50,48,45,81,64,43,30.30,30.25,30.18,10,10,10,20,7,25,0.00,4,Thunderstorm,218
2012-11-19,72,58,44,48,44,40,83,62,32,30.36,30.31,30.27,10,10,10,14,5,17,0.00,1,,215
2012-11-20,72,56,40,45,40,37,91,55,31,30.39,30.33,30.28,10,10,10,10,4,,0.00,1,,109
2012-11-21,71,61,51,50,47,42,91,64,37,30.33,30.28,30.23,10,10,5,24,5,33,0.06,2,Thunderstorm,190
2012-11-22,74,62,49,50,46,39,89,64,28,30.29,30.22,30.17,10,10,10,17,7,24,0.00,1,,211
2012-11-23,53,44,35,45,30,25,88,55,34,30.56,30.47,30.29,10,10,10,20,9,23,0.00,2,,7
2012-11-24,65,48,31,43,35,24,80,63,41,30.51,30.34,30.21,10,10,10,16,5,20,0.00,0,,208
2012-11-25,74,60,47,44,38,31,77,51,20,30.20,30.12,30.05,10,10,10,22,11,29,0.00,0,,218
2012-11-26,71,56,42,41,34,26,65,45,23,30.39,30.18,30.09,10,10,7,20,7,29,0.00,3,,222
2012-11-27,65,46,27,36,31,24,86,59,32,30.49,30.42,30.36,10,10,10,12,5,,0.00,0,,29
2012-11-28,70,56,43,42,36,30,83,51,23,30.42,30.35,30.28,10,10,7,13,5,17,0.00,0,,196
2012-11-29,74,60,45,40,34,30,67,44,21,30.29,30.25,30.19,10,10,10,12,7,18,0.00,0,,213
2012-11-30,76,62,48,36,33,28,60,38,17,30.28,30.23,30.17,10,10,10,16,7,23,0.00,0,,209